Time,TemperatureF,DewpointF,PressureIn,WindDirection,WindDirectionDegrees,WindSpeedMPH,WindSpeedGustMPH,Humidity,HourlyPrecipIn,Conditions,Clouds,dailyrainin,SoftwareType,DateUTC
2013-10-17 00:14:00,54.0,46.0,28.92,NNW,337,0.0,0.0,75,0.00,,,0.08,,2013-10-17 04:14:00,
2013-10-17 00:24:00,53.0,46.0,28.92,NNW,337,0.0,0.0,78,0.00,,,0.08,,2013-10-17 04:24:00,
2013-10-17 00:43:00,53.0,47.0,28.95,NNW,337,0.0,0.0,79,0.00,,,0.08,,2013-10-17 04:43:00,
2013-10-17 00:54:00,53.0,47.0,28.92,North,0,0.0,0.0,80,0.00,,,0.08,,2013-10-17 04:54:00,
2013-10-17 01:13:00,53.0,47.0,28.95,North,0,1.0,3.0,81,0.00,,,0.08,,2013-10-17 05:13:00,
2013-10-17 01:23:00,54.0,47.0,28.95,North,358,2.0,3.0,77,0.00,,,0.08,,2013-10-17 05:23:00,
2013-10-17 01:42:00,54.0,46.0,28.96,North,0,0.0,3.0,75,0.00,,,0.08,,2013-10-17 05:42:00,
2013-10-17 01:52:00,53.0,45.0,28.92,North,0,0.0,0.0,75,0.00,,,0.08,,2013-10-17 05:52:00,
2013-10-17 02:13:00,52.0,44.0,28.92,North,0,0.0,0.0,75,0.00,,,0.08,,2013-10-17 06:13:00,
2013-10-17 02:22:00,50.0,44.0,28.92,North,0,0.0,0.0,79,0.00,,,0.08,,2013-10-17 06:22:00,
2013-10-17 02:42:00,50.0,44.0,28.92,North,0,0.0,0.0,80,0.00,,,0.08,,2013-10-17 06:42:00,
2013-10-17 02:52:00,49.0,44.0,28.92,North,0,0.0,0.0,82,0.00,,,0.08,,2013-10-17 06:52:00,
2013-10-17 03:11:00,48.0,43.0,28.92,North,0,0.0,0.0,83,0.00,,,0.08,,2013-10-17 07:11:00,
2013-10-17 03:22:00,48.0,43.0,28.92,North,0,0.0,0.0,84,0.00,,,0.08,,2013-10-17 07:22:00,
2013-10-17 03:43:00,48.0,44.0,28.92,North,0,0.0,0.0,85,0.00,,,0.08,,2013-10-17 07:43:00,
2013-10-17 03:52:00,47.0,43.0,28.92,North,0,0.0,0.0,86,0.00,,,0.08,,2013-10-17 07:52:00,
2013-10-17 04:11:00,47.0,43.0,28.92,North,0,0.0,0.0,86,0.00,,,0.08,,2013-10-17 08:11:00,
2013-10-17 04:22:00,47.0,43.0,28.92,North,0,0.0,0.0,87,0.00,,,0.08,,2013-10-17 08:22:00,
2013-10-17 04:42:00,47.0,43.0,28.92,North,0,0.0,0.0,87,0.00,,,0.08,,2013-10-17 08:42:00,
2013-10-17 04:52:00,46.0,42.0,28.92,North,0,0.0,0.0,87,0.00,,,0.08,,2013-10-17 08:52:00,
2013-10-17 05:11:00,46.0,43.0,28.92,North,0,0.0,0.0,88,0.00,,,0.08,,2013-10-17 09:11:00,
2013-10-17 05:22:00,46.0,43.0,28.92,North,0,0.0,0.0,89,0.00,,,0.08,,2013-10-17 09:22:00,
2013-10-17 05:43:00,45.0,42.0,28.92,North,0,0.0,0.0,89,0.00,,,0.08,,2013-10-17 09:43:00,
2013-10-17 05:53:00,45.0,42.0,28.92,North,0,0.0,0.0,90,0.00,,,0.08,,2013-10-17 09:53:00,
2013-10-17 06:12:00,44.0,41.0,28.92,North,0,0.0,0.0,90,0.00,,,0.08,,2013-10-17 10:12:00,
2013-10-17 06:23:00,44.0,41.0,28.92,North,0,0.0,0.0,90,0.00,,,0.08,,2013-10-17 10:23:00,
2013-10-17 06:42:00,44.0,42.0,28.92,North,0,0.0,0.0,91,0.00,,,0.08,,2013-10-17 10:42:00,
2013-10-17 06:53:00,43.0,41.0,28.92,North,0,0.0,0.0,92,0.00,,,0.08,,2013-10-17 10:53:00,
2013-10-17 07:12:00,43.0,41.0,28.92,North,0,0.0,0.0,91,0.00,,,0.08,,2013-10-17 11:12:00,
2013-10-17 07:22:00,43.0,41.0,28.92,North,0,0.0,0.0,92,0.00,,,0.08,,2013-10-17 11:22:00,
2013-10-17 07:42:00,43.0,41.0,28.92,North,0,0.0,0.0,93,0.00,,,0.08,,2013-10-17 11:42:00,
2013-10-17 07:52:00,44.0,42.0,28.92,North,0,0.0,0.0,94,0.00,,,0.08,,2013-10-17 11:52:00,
2013-10-17 08:12:00,44.0,43.0,28.92,North,0,0.0,0.0,95,0.00,,,0.08,,2013-10-17 12:12:00,
2013-10-17 08:22:00,44.0,43.0,28.89,North,0,0.0,0.0,95,0.00,,,0.08,,2013-10-17 12:22:00,
2013-10-17 08:42:00,44.0,43.0,28.89,North,0,0.0,0.0,95,0.00,,,0.08,,2013-10-17 12:42:00,
2013-10-17 08:52:00,45.0,44.0,28.92,North,0,0.0,0.0,95,0.00,,,0.08,,2013-10-17 12:52:00,
2013-10-17 09:11:00,45.0,43.0,28.89,North,0,0.0,0.0,94,0.00,,,0.08,,2013-10-17 13:11:00,
2013-10-17 09:22:00,45.0,43.0,28.89,North,0,0.0,0.0,94,0.00,,,0.08,,2013-10-17 13:22:00,
2013-10-17 09:33:00,45.0,43.0,28.89,North,0,0.0,0.0,94,0.00,,,0.08,,2013-10-17 13:33:00,
2013-10-17 09:42:00,45.0,43.0,28.89,North,0,0.0,0.0,94,0.00,,,0.08,,2013-10-17 13:42:00,
2013-10-17 09:52:00,47.0,46.0,28.92,North,0,0.0,0.0,95,0.00,,,0.08,,2013-10-17 13:52:00,
2013-10-17 10:11:00,47.0,46.0,28.89,East,90,1.0,3.0,95,0.00,,,0.08,,2013-10-17 14:11:00,
2013-10-17 10:22:00,49.0,48.0,28.89,East,90,0.0,0.0,95,0.00,,,0.08,,2013-10-17 14:22:00,
2013-10-17 10:42:00,50.0,49.0,28.89,East,90,0.0,0.0,95,0.00,,,0.08,,2013-10-17 14:42:00,
2013-10-17 10:52:00,52.0,50.0,28.89,WSW,238,1.0,3.0,93,0.00,,,0.08,,2013-10-17 14:52:00,
2013-10-17 11:11:00,53.0,50.0,28.89,East,90,1.0,3.0,90,0.00,,,0.00,,2013-10-17 15:11:00,
2013-10-17 11:22:00,54.0,50.0,28.86,West,275,0.0,3.0,85,0.00,,,0.00,,2013-10-17 15:22:00,
2013-10-17 11:43:00,54.0,49.0,28.86,East,90,1.0,1.0,82,0.00,,,0.00,,2013-10-17 15:43:00,
2013-10-17 11:54:00,57.0,45.0,28.89,WNW,303,2.0,4.0,65,0.00,,,0.00,,2013-10-17 15:54:00,
2013-10-17 12:12:00,57.0,45.0,28.89,WSW,241,2.0,3.0,65,0.00,,,0.00,,2013-10-17 16:12:00,
2013-10-17 12:23:00,57.0,44.0,28.86,West,270,1.0,3.0,62,0.00,,,0.00,,2013-10-17 16:23:00,
2013-10-17 12:42:00,57.0,44.0,28.86,NNW,337,1.0,3.0,61,0.00,,,0.00,,2013-10-17 16:42:00,
2013-10-17 12:54:00,58.0,44.0,28.86,NNW,337,1.0,2.0,59,0.00,,,0.00,,2013-10-17 16:54:00,
2013-10-17 13:12:00,58.0,42.0,28.83,NW,310,2.0,3.0,56,0.00,,,0.00,,2013-10-17 17:12:00,
2013-10-17 13:22:00,60.0,44.0,28.83,NNW,337,0.0,3.0,55,0.00,,,0.00,,2013-10-17 17:22:00,
2013-10-17 14:42:00,54.0,46.0,28.82,NW,326,2.0,9.0,73,0.04,,,0.00,,2013-10-17 18:42:00,
2013-10-17 14:52:00,53.0,46.0,28.82,NNW,329,2.0,6.0,78,0.08,,,0.00,,2013-10-17 18:52:00,
2013-10-17 15:12:00,52.0,47.0,28.79,NW,304,4.0,8.0,83,0.04,,,0.08,,2013-10-17 19:12:00,
2013-10-17 15:22:00,52.0,47.0,28.79,NW,311,3.0,7.0,84,0.04,,,0.08,,2013-10-17 19:22:00,
2013-10-17 15:42:00,51.0,47.0,28.82,East,90,0.0,4.0,85,0.08,,,0.08,,2013-10-17 19:42:00,
2013-10-17 15:53:00,51.0,47.0,28.76,ENE,67,0.0,0.0,85,0.00,,,0.21,,2013-10-17 19:53:00,
2013-10-17 16:11:00,52.0,48.0,28.76,NNW,337,0.0,2.0,85,0.04,,,0.21,,2013-10-17 20:11:00,
2013-10-17 16:22:00,52.0,47.0,28.79,North,0,0.0,0.0,84,0.04,,,0.21,,2013-10-17 20:22:00,
2013-10-17 16:42:00,52.0,48.0,28.79,North,7,1.0,4.0,85,0.04,,,0.21,,2013-10-17 20:42:00,
2013-10-17 16:52:00,52.0,48.0,28.79,NW,315,2.0,5.0,85,0.04,,,0.21,,2013-10-17 20:52:00,
2013-10-17 17:12:00,53.0,49.0,28.76,West,280,3.0,4.0,87,0.00,,,0.25,,2013-10-17 21:12:00,
2013-10-17 17:22:00,52.0,48.0,28.79,West,262,1.0,4.0,86,0.00,,,0.25,,2013-10-17 21:22:00,
2013-10-17 17:44:00,53.0,50.0,28.79,NNW,328,1.0,3.0,88,0.00,,,0.25,,2013-10-17 21:44:00,
2013-10-17 17:54:00,55.0,49.0,28.79,North,352,3.0,6.0,81,0.00,,,0.25,,2013-10-17 21:54:00,
2013-10-17 18:14:00,54.0,44.0,28.79,NW,314,2.0,7.0,69,0.00,,,0.25,,2013-10-17 22:14:00,
2013-10-17 18:24:00,53.0,44.0,28.79,NW,314,2.0,4.0,72,0.04,,,0.25,,2013-10-17 22:24:00,
2013-10-17 18:43:00,52.0,44.0,28.82,North,0,0.0,5.0,74,0.04,,,0.25,,2013-10-17 22:43:00,
2013-10-17 18:53:00,52.0,44.0,28.82,West,261,1.0,4.0,75,0.04,,,0.25,,2013-10-17 22:53:00,
2013-10-17 19:13:00,52.0,45.0,28.82,WSW,247,0.0,3.0,78,0.00,,,0.29,,2013-10-17 23:13:00,
2013-10-17 19:22:00,52.0,46.0,28.82,East,90,0.0,3.0,80,0.00,,,0.29,,2013-10-17 23:22:00,
2013-10-17 19:43:00,52.0,47.0,28.82,WNW,303,2.0,3.0,82,0.00,,,0.29,,2013-10-17 23:43:00,
2013-10-17 19:53:00,52.0,47.0,28.84,NW,304,2.0,6.0,82,0.00,,,0.29,,2013-10-17 23:53:00,
2013-10-17 20:12:00,51.0,45.0,28.84,NW,313,2.0,4.0,79,0.00,,,0.29,,2013-10-18 00:12:00,
2013-10-17 20:22:00,51.0,45.0,28.84,WSW,247,2.0,4.0,80,0.00,,,0.29,,2013-10-18 00:22:00,
2013-10-17 20:42:00,51.0,45.0,28.84,WNW,299,1.0,4.0,81,0.00,,,0.29,,2013-10-18 00:42:00,
2013-10-17 20:52:00,51.0,45.0,28.84,SW,225,0.0,3.0,81,0.00,,,0.29,,2013-10-18 00:52:00,
2013-10-17 21:12:00,51.0,45.0,28.84,SSW,202,3.0,6.0,80,0.00,,,0.29,,2013-10-18 01:12:00,
2013-10-17 21:22:00,51.0,45.0,28.84,East,90,0.0,3.0,80,0.00,,,0.29,,2013-10-18 01:22:00,
2013-10-17 21:42:00,51.0,45.0,28.88,NNE,22,1.0,4.0,80,0.00,,,0.29,,2013-10-18 01:42:00,
2013-10-17 21:53:00,50.0,45.0,28.88,SW,219,3.0,6.0,82,0.00,,,0.29,,2013-10-18 01:53:00,
2013-10-17 22:11:00,50.0,45.0,28.88,NW,307,2.0,5.0,84,0.00,,,0.29,,2013-10-18 02:11:00,
2013-10-17 22:22:00,50.0,45.0,28.88,South,189,1.0,4.0,84,0.00,,,0.29,,2013-10-18 02:22:00,
2013-10-17 22:42:00,50.0,45.0,28.88,SSW,205,2.0,6.0,84,0.00,,,0.29,,2013-10-18 02:42:00,
2013-10-17 22:52:00,50.0,45.0,28.88,South,172,1.0,5.0,83,0.00,,,0.29,,2013-10-18 02:52:00,
2013-10-17 23:03:00,50.0,45.0,28.88,South,172,1.0,5.0,83,0.00,,,0.29,,2013-10-18 03:03:00,
2013-10-17 23:11:00,50.0,45.0,28.88,South,172,1.0,5.0,83,0.00,,,0.29,,2013-10-18 03:11:00,
2013-10-17 23:22:00,50.0,45.0,28.91,West,278,1.0,4.0,83,0.00,,,0.29,,2013-10-18 03:22:00,
2013-10-17 23:54:00,50.0,44.0,28.92,West,267,2.0,5.0,81,0.00,,,0.29,,2013-10-18 03:54:00,